Regional Weather Roundup
Issued by NWS

Home | Current Version | Previous Version | Text Only | Print | Product List | Glossary On
Versions: 1 2 3 4 5 6 7 8 9 10 11 12 13 14 15 16 17 18 19 20 21 22 23 24 25 26 27 28 29 30 31 32 33 34 35 36 37 38 39 40 41 42 43 44 45 46 47 48 49 50
000
ASUS43 KMPX 181010
RWRMN
WEATHER ROUNDUP FOR MINNESOTA
NATIONAL WEATHER SERVICE TWIN CITIES/CHANHASSEN MN
400 AM CST THU JAN 18 2018


NOTE: "FAIR" INDICATES FEW OR NO CLOUDS BELOW 12,000 FEET WITH NO
SIGNIFICANT WEATHER AND/OR OBSTRUCTIONS TO VISIBILITY. N/A MEANS
CURRENT SKY AND/OR WEATHER CONDITIONS ARE NOT AVAILABLE.

MNZ060>063-068>070-181100-
   Twin Cities Metro

CITY           SKY/WX    TMP DP  RH WIND       PRES   REMARKS
TWIN CITIES    MOCLDY    23  18  81 SW8       29.96F WCI  14
ST PAUL        FAIR      21  16  81 SE3       29.97F
CRYSTAL        FAIR      23  15  71 S8        29.93F WCI  14
BLAINE         FAIR      25  18  74 S9        29.92F WCI  15
LAKEVILLE      FAIR      21  18  86 SW6       29.96F WCI  14
EDEN PRAIRIE   FAIR      22  16  78 SW6       29.96F WCI  14
SOUTH ST PAUL  FAIR      19  15  83 CALM      29.96F
LAKE ELMO      FAIR      27  19  74 SW8       29.95F WCI  18
$$
MNZ001>005-007-008-013>017-022>024-027-028-181100-
   Northwest Minnesota

CITY           SKY/WX    TMP DP  RH WIND       PRES   REMARKS
BEMIDJI        CLOUDY    33  22  64 W20G26    29.72F WCI  21
HALLOCK        CLOUDY    30  23  74 NW10      29.74R WCI  21
ROSEAU         CLOUDY    34  27  75 W15       29.68R WCI  24
WARROAD        CLOUDY    32  28  86 W12       29.66S WCI  23
THIEF RVR FALL CLOUDY    33  24  69 W18       29.74S WCI  22
CROOKSTON      FAIR      28  21  74 W13       29.77F WCI  18
FOSSTON        FAIR      28  21  74 SW15G22   29.76S WCI  17
DETROIT LAKES  FAIR      32  23  69 W13       29.81F WCI  22
MOORHEAD       FAIR      30  21  69 SW9       29.84S WCI  22
PARK RAPIDS    FAIR      29  21  72 W12       29.76F WCI  19
MAHNOMEN       FAIR      29  22  74 SW14      29.78S WCI  18
$$
MNZ006-009>011-018-025>026-181100-
   North Central Minnesota

CITY           SKY/WX    TMP DP  RH WIND       PRES   REMARKS
BAUDETTE       CLOUDY    32  29  88 W13G22    29.63F WCI  22
FLAG ISLAND    CLOUDY    30  28  93 W10       29.61S WCI  21
INTL FALLS     LGT SNOW  30  27  88 SW9       29.64F FOG     WCI  22
WASKISH        CLOUDY    30  30 100 SW16      29.68F WCI  19
BIG FORK       CLOUDY    32  23  69 SW12G17   29.68F WCI  23
LONGVILLE      FAIR      28  21  74 SW9       29.75S WCI  20
GRAND RAPIDS   MOCLDY    33  21  61 SW15G22   29.72F WCI  23
CRANE LAKE     SNOW      25  23  93 S3        29.69F VSB 1/2
ORR            CLOUDY    27  21  80 S5        29.65S WCI  21
COOK           CLOUDY    28  23  80 SW6       29.69F WCI  22
WALKER         FAIR      32  21  63 W15G23    29.72F WCI  22
$$
MNZ012-019>021-037-181100-
   Northeast Minnesota

CITY           SKY/WX    TMP DP  RH WIND       PRES   REMARKS
DULUTH         FAIR      26  20  77 SW10      29.73F WCI  16
ELY            MOCLDY    23  19  86 SW3       29.69S
HIBBING        CLOUDY    20  18  92 CALM      29.70F
EVELETH        FAIR      20  16  84 CALM      29.72F
DULUTH HARBOR  FAIR      27  21  80 SW14      29.80F WCI  15
TWO HARBORS    FAIR      25  19  80 S6        29.73F WCI  18
SILVER BAY     FAIR      19  18  93 SW3       29.72F
GRAND MARAIS     N/A     25  18  74 W3        29.75F
G MARAIS ARPRT CLOUDY    18  12  79 SW3       29.68F
$$
MNZ029>031-032-039>041-046>048-054>057-064-181100-
   West Central Minnesota

CITY           SKY/WX    TMP DP  RH WIND       PRES   REMARKS
FERGUS FALLS   FAIR      25  19  80 CALM      29.86R
WHEATON        PTCLDY    36  21  55 SW18      29.87F
MORRIS         CLOUDY    30  23  74 W17       29.86F WCI  18
ALEXANDRIA     FAIR      26  20  77 SW13      29.84F WCI  15
ELBOW LAKE     FAIR      25  20  83 W10       29.86F WCI  15
WADENA         FAIR      28  19  69 SW10      29.80F WCI  19
GLENWOOD       FAIR      25  19  80 SW14      29.87F WCI  13
APPLETON       CLOUDY    28  21  74 W12       29.92F WCI  18
BENSON         CLOUDY    27  19  74 W8        29.91F WCI  18
ORTONVILLE     CLOUDY    30  21  69 W5        29.92F WCI  25
MADISON        CLOUDY    34  25  69 SW8       29.93F WCI  27
WILLMAR        FAIR      21  18  86 SW5       29.94F WCI  15
$$
MNZ033>034-036-042>043-049>051-058-059-181100-
   Central Minnesota

CITY           SKY/WX    TMP DP  RH WIND       PRES   REMARKS
ST CLOUD       FAIR      22  18  85 S9        29.87F WCI  12
SAUK CENTRE      N/A     26  19  77 SW10      29.85F WCI  16
PAYNESVILLE    FAIR      28  23  80 W13       29.89F WCI  18
PINE RIVER     FAIR      27  19  74 W6        29.82S WCI  20
BRAINERD       FAIR      27  19  72 SW6       29.80F WCI  20
STAPLES        FAIR      27  19  74 SW8       29.81F WCI  18
LONG PRAIRIE   FAIR      23  19  86 S8        29.85F WCI  14
LITTLE FALLS   FAIR      25  18  74 S5        29.84F WCI  19
LITCHFIELD     FAIR      23  19  86 SW7       29.91F WCI  15
BUFFALO        FAIR      21  17  82 S7        29.93F WCI  13
MAPLE LAKE     FAIR      23  19  86 MISG      29.91F
HUTCHINSON     FAIR      23  19  83 S5        29.95F WCI  17
$$
MNZ037-044-045-052-053-181100-
   East Central Minnesota

CITY           SKY/WX    TMP DP  RH WIND       PRES   REMARKS
PRINCETON      FAIR      25  19  80 S6        29.87F WCI  18
MORA           FAIR      25  19  80 SW6       29.85F WCI  18
CAMBRIDGE      FAIR      25  16  68 S7        29.88F WCI  17
RUSH CITY      FAIR      24  19  78 S7        29.87F WCI  16
MOOSE LAKE     FAIR      21  18  86 CALM      29.80R
HINCKLEY       FAIR      27  21  80 S10       29.81F WCI  17
CLOQUET        FAIR      25  18  74 S8        29.75F WCI  16
MCGREGOR       FAIR      28  21  74 S7        29.79F WCI  21
$$
MNZ071>073-080-081-089-090-097-098-181100-
   Southwest Minnesota

CITY           SKY/WX    TMP DP  RH WIND       PRES   REMARKS
MONTEVIDEO     CLOUDY    28  21  74 W9        29.92F WCI  20
GRANITE FALLS  CLOUDY    24  20  85 SW8       29.96F WCI  15
CANBY          CLOUDY    33  24  69 W5        29.96F WCI  28
MARSHALL       CLOUDY    30  22  72 W18       29.95F WCI  18
REDWOOD FALLS  CLOUDY    22  17  81 SW9       29.96F WCI  12
OLIVIA         CLOUDY    21  19  93 SW8       29.94F WCI  12
PIPESTONE      CLOUDY    16  12  86 SW5       30.01S WCI   9
WINDOM         CLOUDY    23   9  54 SW13      30.00F WCI  11
WORTHINGTON    CLOUDY    19  15  84 SW14      30.02F WCI   6
JACKSON        CLOUDY    23  18  80 SW14      30.01F WCI  11
SLAYTON        CLOUDY    25  20  82 W9        30.00S WCI  15
$$
MNZ065>067-074>077-082>085-091>093-181100-
   South Central Minnesota

CITY           SKY/WX    TMP DP  RH WIND       PRES   REMARKS
MANKATO        FAIR      19  15  84 S9        30.01F WCI   8
NEW ULM        CLOUDY    19  16  86 SW7       29.99F WCI  10
ST JAMES       CLOUDY    21  18  86 SW9       30.00F WCI  11
FAIRMONT       CLOUDY    24  18  77 W17       30.01F WCI  11
FARIBAULT      FAIR      18  14  86 S8        30.00F WCI   7
OWATONNA       FAIR      19  16  86 SW13      30.00F WCI   7
WASECA         FAIR      18  14  86 S8        30.03F WCI   7
ALBERT LEA     FAIR      19  12  73 SW9       30.02F WCI   9
$$
MNZ078>079-086>088-094>096-181100-
   Southeast Minnesota

CITY           SKY/WX    TMP DP  RH WIND       PRES   REMARKS
ROCHESTER      FAIR      17  13  84 SW10      30.00F WCI   5
RED WING       FAIR      16  10  79 CALM      29.99F
STANTON        FAIR      21  16  79 SW13      29.98F WCI   9
DODGE CENTER   FAIR      18  12  79 SW13      29.99F WCI   4
WINONA         FAIR      23  14  68 CALM      30.02F
AUSTIN         FAIR      16  10  79 SW8       30.03F WCI   5
PRESTON        FAIR      18  12  78 SW9       30.02F WCI   6
$$
ABBREVIATIONS USED IN REMARKS
   TC - TEMPERATURES IN CELSIUS
  WCI - WIND CHILL INDEX
   HX - HEAT INDEX
  VSB - VISIBILITY
$$



USA.gov is the U.S. government's official web portal to all federal, state and local government web resources and services.